timestamp,gas_concentrations,,corrected_fluxes_and_quality_flags,,,,,,,,,,storage_terms,,,turbulence,,,footprint,,
ISOdate,CO2_1_1_1,H2O_1_1_1,Tau_1_1_1,QcTau_1_1_1,H_1_1_1,QcH_1_1_1,LE_1_1_1, QcLE_1_1_1,Fc_1_1_1, QcFc_1_1_1,E_1_1_1, QcE_1_1_1,Sa_1_1_1,Sw_1_1_1,Sc_1_1_1,ustar_1_1_1,MO_length_1_1_1,ZL_1_1_1,Fetchmax_1_1_1,Fetch70_1_1_1,Fetch90_1_1_1
yyyymmddHHMM,[µmol+1mol_a-1],[mmol+1mol_a-1],[kg+1m-1s-2],[#],[W+1m-2],[#],[W+1m-2],[#],[µmol+1s-1m-2],[#],[mmol+1s-1m-2],[#],[W+1m-2],[W+1m-2],[µmol+1s-1m-2],[m+1s-1],[m],[#],[m],[m],[m]
201410010030,386.02873126719010,9.1086597026370217,0.83335216215635899,0,6.6023923903061581,0,1.6718991846276219,0,3.9391904856276319,0,3.73259547136672171E-002,0,-9999.,-9999.,-9999.,0.84055768273072207,-7554.1572144733600,-2.85935272284452329E-003,114.87405132016826,210.02640301282364,314.65782353470649
201410010100,385.67322024578908,9.1716783941196649,0.89473824726080819,0,10.140689974044717,0,-6.9083015481382217,0,2.2436741277433234,0,-0.15423248354654154,0,0.20841972141149567,2.2417073974738879,-0.28233659864697597,0.87118283587807366,-5474.1032273600695,-3.94585178665269286E-003,115.03092044911142,210.31320981137432,315.08751238197681
201410010130,386.91832576784191,9.2544000325048916,0.98357185071396125,0,7.7093131124320298,0,19.164543806633667,0,4.6128426640073386,0,0.42786134431699563,0,0.0000000000000000,2.9408371153148432,0.98824031805538437,0.91369241734067908,-8303.4584343775023,-2.60132572116853400E-003,116.07071623242305,212.21428812912407,317.93567412379190
201410010200,387.20261443840968,9.2376227675558873,0.90377408756556132,0,9.6354535794642651,0,45.451032293962349,1,4.0233126195332947,0,1.0146420222704831,1,-1.9829594153759391,-0.59657846716861040,0.22567063818761407,0.87578194536264031,-5849.7280438746338,-3.69247934912423671E-003,111.17313462559422,203.25994694830220,304.52043934032247
201410010230,386.00329929407644,9.2377894870672570,0.77003989982028631,0,2.5631181149524171,0,63.032003088911132,2,1.2446499363647285,2,1.4070306750050512,2,-1.4893934851394819,5.92968106469695180E-003,-0.95218356437830098,0.80832636430789917,-17289.837434159577,-1.24928878494397081E-003,114.89011621949990,210.05577477243870,314.70182778284527
201410010300,378.25140010626529,9.3032222991734663,0.75064523808083239,0,-9.6018443587295668,2,156.49164414855005,1,4.5951141441865344,0,3.4934304709121546,1,1.0339588258514170,2.3268220612389210,-6.1537047341464861,0.79814592483741287,4443.2861935208739,4.86126687754139322E-003,116.67112583977080,213.31202838217848,319.58028905733170
201410010330,381.98620143727811,9.3249757915996589,0.62125972176360555,0,-5.8497345166776693,0,-9999.,-9999.,-11.481717412955229,1,-9999.,-9999.,0.30096779017001701,-221.02173583138082,2.9651816823130583,0.72606531789921447,5491.0900749498196,3.93364517885775016E-003,110.80046157630771,202.57858175623360,303.49963012160953
201410010400,412.89047416763123,9.3101492262370193,0.90970578967929583,0,-1.5852787772645818,2,-9999.,-9999.,9.9563321575122909,0,-9999.,-9999.,-0.53272840051693326,150.71575547222108,24.547366806978243,0.87838934800335033,35887.321422955560,6.01883872731259870E-004,117.35979590050272,214.57113689324703,321.46666304652331
201410010430,496.00005145645525,9.1300136407313506,0.70573325533787556,0,-7.6089714899481606,1,-9999.,-9999.,11.146820706720291,2,-9999.,-9999.,-6.5984434609124287,1833.0635899503266,66.066230347353326,0.77334092790152509,5101.3508437150495,4.23417260677366823E-003,115.69979056356158,211.53611770577081,316.91965125077763
201410010500,453.93574008266529,9.1339652933220776,0.57815179654279625,0,2.90110295771103255E-002,2,-9999.,-9999.,-23.908595060382957,0,-9999.,-9999.,2.31765184323307616E-002,-40.206787832118756,-33.433762821206066,0.70000389940589436,-992195.20037647826,-2.17699097836837980E-005,99.989915193489040,182.81345512151145,273.88786874516103
201410010530,470.50480070706573,9.1299268958509856,0.71495601069778791,0,-2.8878252349877540,2,-9999.,-9999.,31.130444561273112,1,-9999.,-9999.,-2.31814770273607550E-002,41.098247223673063,13.172328843011471,0.77834518989197488,13704.710159014230,1.57610046103694276E-003,117.01711442466666,213.94460586276759,320.52800539396338
201410010600,455.81695506034600,9.1643315985543854,0.66377034819756664,0,-15.073696440171165,0,-9999.,-9999.,104.46459671951570,1,-9999.,-9999.,1.3132543810034143,-350.01428403111191,-11.673469516929570,0.75007683903942435,2349.6314516007164,9.19293108086577729E-003,106.14385783227327,194.06482496454731,290.74447103805250
201410010630,448.56323602430996,9.1672760557074948,0.89597218311680837,0,-21.273139135941964,0,-9999.,-9999.,-33.796972869755315,0,-9999.,-9999.,1.3665786397758157,-29.937091357573021,-5.7618694245433932,0.87169373183409782,2612.5093207822533,8.26791308577318196E-003,120.72269980595770,220.71959777560892,330.67817784456582
201410010700,458.72613060061906,9.2604401775643659,0.85759704045162677,0,-5.7826538494403517,0,-9999.,-9999.,12.635430274608970,0,-9999.,-9999.,3.0552255311611507,-946.40579734377991,8.0667590417767538,0.85315213558167624,9008.9698622823562,2.39761041830456297E-003,109.99304757715237,201.10237145429031,301.28799808856161
201410010730,431.19356148724563,9.3306753437533878,0.99383238335473945,0,13.183429316027119,1,18.158315736833753,2,-11.726199992717753,1,0.40542664818702395,2,5.3196449224564617,2.4950444497375197,-21.837712212873267,0.91877218014239781,-4935.7228794235771,-4.37625866112697527E-003,111.70124021671150,204.22549239950413,305.96700237164043
201410010800,424.06220557965094,9.4410281850499231,0.95276000521078708,0,13.339352797463867,0,-22.279772625861213,2,-5.7394430171068027,1,-0.49757286112866594,2,6.0933980742095013,3.9159538799496763,-5.6516087732886779,0.89997890014430626,-4585.2500386493930,-4.71075727995901895E-003,107.71118756716811,196.93040359411563,295.03763000193987
201410010830,419.38644672496514,9.5224375344920720,1.0500635401169143,0,36.817393032361863,0,-10.727551504190062,2,1.5087474056430226,2,-0.23964063670424807,2,6.3495711458937958,2.8854522771660061,-3.7021292174622928,0.94526879710439249,-1925.0432426127916,-1.12205271662797045E-002,110.70201165329775,202.39858389797891,303.22996053003976
201410010900,410.62368440605701,9.5741872013613971,1.1625145937548540,0,79.210151217871086,0,157.07610447083272,1,-24.805534403273999,1,3.5100873154796726,1,8.2329476387268716,1.8313374830568576,-6.9296237666198408,0.99521388385613319,-1044.2837828486884,-2.06840327837684475E-002,114.71525050965228,209.73606448427955,314.22284351234060
201410010930,395.41591174215193,9.6034451757810047,1.0809145172444978,0,102.36821885132373,0,58.401814174664203,1,-7.2395917341375835,1,1.3055884941904041,1,9.5611796634833777,1.0331310390677360,-12.004850097301183,0.96051478072278607,-726.28364352254005,-2.97404467147822406E-002,111.89172452922452,204.57375847463345,306.48876841457206
201410011000,391.24541708693306,9.6273948144442674,1.1385634351445943,0,120.14305851680444,0,31.208082755647524,0,-2.7442482648158473,0,0.69791196795977095,0,8.5133109648021961,0.84419572785122710,-3.2874965850741313,0.98649675603884279,-670.38284625682729,-3.22203948394659892E-002,114.12091382489450,208.64942747057893,312.59486325462785
201410011030,390.66277864151124,9.7359190701706648,1.3759000647033708,0,156.51912240474454,0,35.574835985204757,0,-2.7485085970856762,0,0.79603326170828315,0,14.080096150449956,3.8136021461298428,-0.45813768160545110,1.0858250769308400,-686.06338949250778,-3.14839712056022569E-002,120.78778879291465,220.83860120283390,330.85646666381251
201410011100,390.43053409036912,9.7630526998826870,1.4491270139253161,0,264.74062913274457,0,68.765519380068412,0,-4.3687231995895139,0,1.5399679231757848,0,19.411160015111896,0.94949264820508217,-0.18199949929084894,1.1162410562924503,-440.55109557164042,-4.90295001354445759E-002,124.12368334698542,226.93768037667462,339.99399866396487
201410011130,389.64239249479567,9.9192571508156124,1.1705427329092182,0,236.20492197675497,0,49.992971775297363,0,-3.3675940817072210,0,1.1204398693623647,0,18.567562641126557,5.4443336037164602,-0.61565182842349753,1.0048659810073859,-360.15904261171920,-5.99735046033164909E-002,124.08577001816582,226.86836271975636,339.89014818257044
201410011200,388.52428710141925,10.039541935306740,1.0089196142397601,0,348.33781290816813,0,68.631869087683583,0,-3.0567972377040284,0,1.5389250869538176,0,11.592605527162998,4.1807168494150435,-0.87139378013122459,0.93401168502038245,-196.05243224268349,-0.11017460866418859,111.60017721454510,204.04071699915258,305.69017515142747
201410011230,387.30779236776061,10.243537967757581,1.2525385521810506,0,292.17082252451996,0,73.173378255534089,0,-3.1327468766905540,0,1.6419932059186824,0,17.787419361860955,7.0623032392234943,-0.94504638119727402,1.0423913624359771,-324.83110321900540,-6.64960953121444126E-002,119.00209587292521,217.57378502754676,325.96517710583237
201410011300,386.25978059726998,10.415464600246738,1.1036148641117169,0,178.22844915568638,0,48.557170705434416,0,-2.9550226209628576,0,1.0903354897885198,0,15.657688480451611,5.9307844222322297,-0.81178667144989614,0.97992257512528735,-442.25014787402057,-4.88411368630067219E-002,118.16869352740837,216.05005973989668,323.68235896583167
201410011330,385.32439146101586,10.642423806086938,0.89925370513309000,0,90.331995596063479,0,36.587974559841768,0,-0.86558115751052966,0,0.82186926567627494,0,8.5335897463945809,7.8127177875702349,-0.72328761229363192,0.88536295346695693,-643.40193951719118,-3.35715494053509395E-002,119.19835259077760,217.93260490065072,326.50275466128380
201410011400,385.60975305653454,10.732763596226743,0.89997600465155692,0,45.013300764996067,0,20.172902512586742,1,-0.44431140379604717,0,0.45311516488120646,1,-1.3081716036512656,3.1097894988854815,0.22064172671014187,0.88576075032833212,-1292.6846065077782,-1.67094122504892924E-002,112.77641934251913,206.19126275227484,308.91208457034912
201410011430,386.74879403148469,10.969061801065532,1.0309708115606528,0,23.488901649693208,0,0.60201157894739066,2,2.6287184547528231,2,1.35191325546259490E-002,2,-5.2147106567040806,8.1428147725087019,0.88144955475279807,0.94767764899245299,-3034.0957525792737,-7.11908975899587862E-003,121.02657031892707,221.27516998784631,331.51052625700953
201410011500,383.66807795005803,11.380741599344400,0.68045397440293121,0,3.1395111113227978,2,-55.338077289733057,2,52.694879406897492,0,-1.2423249267156089,2,-7.2073553834495883,14.201874810606661,-2.3858818490464508,0.76966405718850406,-12158.356598514552,-1.77655588771256988E-003,109.10887533752951,199.48582260798722,298.86611334303171
201410011530,415.99814625903451,11.902570009651939,0.54518479448659207,0,-36.351308544675611,0,58.232402536379468,1,8.0214566086513308,0,1.3064353874299790,1,-15.660045256399263,18.050084029442615,25.088884799745891,0.68830035484196816,750.85115583206311,2.87673526666729941E-002,109.62865036304835,200.43613712837754,300.28985766455492
201410011600,385.54052873858654,11.905630866588433,0.90942858690579575,0,-25.303574732535626,0,89.025951688555381,1,-16.196932473235261,2,1.9972618083988951,1,-0.26413973784950318,0.10587417614392255,-23.635310592670837,0.88898688592620045,2323.9396392484041,9.29456154333929002E-003,117.21262104540077,214.30205431910812,321.06352831719835
201410011630,389.40251142309495,11.984512616341579,1.2057487291712279,0,-11.236921866415846,0,26.765088783077818,0,2.9284856037239431,0,0.60050190037651097,0,1.4865773083791278,2.7280064601082432,2.9965731162690608,1.0236968822774948,7991.5156511411524,2.70286650779637998E-003,123.12167003596321,225.10568046837145,337.24932896723504
201410011700,394.76236699290615,12.198993345006862,0.79567152176969302,0,-23.450780037178127,0,174.69340441323845,1,-8.4313343002963830,1,3.9195237761686612,1,0.60362059034798765,7.4162194135448933,4.1581885259209423,0.83168583969060650,2053.4446997080372,1.05189100067175564E-002,111.87058364999417,204.53510620486279,306.43086027108990
201410011730,432.04826436690053,12.451579341675425,0.76383971455330979,0,14.985246210569544,2,-360.42774106735561,2,90.245693510088998,1,-8.0853557704178485,2,-4.1307579400378653,8.7423905029370950,28.949859224698145,0.81458980549942939,-3019.8447742193889,-7.15268552357412740E-003,113.83032064231146,208.11813045287508,311.79888350711502
201410011800,387.18758924520705,12.620998720898832,0.25908401414002974,0,-7.6961790008953779,0,-230.10816948632780,1,48.800385959562682,1,-5.1607815170010154,1,-5.3144395317326953,5.8712449902223520,-34.867142567439977,0.47418497730257608,1160.0467044167629,1.86199399711754199E-002,100.18490140425152,183.16995210244761,274.42196618485877
201410011830,410.03255163685935,12.713973744596817,0.44767661367645684,0,-32.079232401153874,0,-9999.,-9999.,-169.95135491361873,2,-9999.,-9999.,0.37041282579925272,-920.44068155851005,17.755040253657661,0.62334291327436497,632.23062125039417,3.41647482326632654E-002,105.84120467284089,193.51147846283055,289.91545714554627
201410011900,449.28684193664964,12.780648062305154,0.44091897483814424,0,-28.360746936514083,0,-37.025563483615102,2,-10.107357636895232,2,-0.83046812540229786,2,1.6933764062924910,2.3103536243210891,30.509022957677658,0.61862111605603964,699.14808962552274,3.08947422163012402E-002,106.72277305073229,195.12326661942942,292.33020951038799
201410011930,416.48955585465836,12.906875343565472,0.54402802256909188,0,-31.702818612202464,0,11.191375672624810,2,6.8198279697988777,1,0.25105473738565548,2,3.4684636274718548,4.3713720283949149,-25.479294305329027,0.68732515284733142,857.91090514362804,2.51774396041554160E-002,110.38490558723662,201.81881287342659,302.36135788714739
201410012000,404.51523511665982,13.022564159349679,0.50508094824372152,0,-39.344481341139797,0,101.06091667041002,1,-13.364139670070251,1,2.2674062901805825,1,3.3310848651182199,4.0041245141383159,-9.2985065036791408,0.66242273430796528,618.88748801438578,3.49013357327687956E-002,108.79957922678797,198.92033067261661,298.01890337772431
201410012030,395.63704282385595,13.102282360177874,0.49347188914817869,0,-27.955633955969237,0,48.995950127838199,1,-3.5831373920763347,2,1.0993180521791150,1,0.92896069152856686,2.7586424627288779,-6.8932757421946516,0.65482179601558166,841.38970842916854,2.56718138855371730E-002,109.26241480270134,199.76654171922212,299.28668172538119
201410012100,402.18973323392635,13.195106529564370,0.65616488702050857,0,-0.78221405613169803,0,-573.81534806714774,1,73.773659085620750,1,-12.875827498258079,1,2.1671000240520337,3.2111181962214457,5.0864860626119635,0.75519223928203671,46129.912375558008,4.68242814426952805E-004,106.96972871711327,195.57478034004393,293.00665934044076
201410012130,524.93844645089428,13.252118567436307,0.60998060886660910,0,-19.603181161941034,0,-9999.,-9999.,-35.648180504053869,2,-9999.,-9999.,-0.62677068065423769,-563.49651456674314,95.289394686404634,0.72811342539900437,1649.6857083577199,1.30934031194966435E-002,107.38711163715161,196.33788943532880,294.14993582186111
201410012200,558.36286170426808,13.277205628003363,0.49621358024023349,0,-26.739438097797997,0,-9999.,-9999.,0.27012872977108682,2,-9999.,-9999.,-0.50611352495333961,-248.04161478887551,25.955670140481168,0.65660927561581250,887.10976778429620,2.43487342653768597E-002,104.13912619831743,190.39953616131484,285.25320050774280
201410012230,538.84177733622903,13.335374851023461,0.63711264170533155,0,-26.132655767699976,0,-9999.,-9999.,-2.7210968968982758,2,-9999.,-9999.,2.7413092409790707,-574.89779091474963,-15.154629776823651,0.74413052479103059,1321.3530079586330,1.63468807123464920E-002,113.18911318262209,206.94579871393250,310.04251693536645
201410012300,431.56206600884582,13.314153593895595,0.55717698700932483,0,-29.950943395825586,0,-70.895397909394561,2,9.3074189773130787,2,-1.5909790404125708,2,0.75494524878638458,-0.73389091677879803,-83.257701120134442,0.69599020816302171,943.17608434756119,2.29013440421803396E-002,106.56610998067099,194.83683656223388,291.90108509031887
201410012330,411.17459834481895,13.247019415807051,0.42677443174487811,0,-29.605027261325180,0,15.583048231045453,2,10.667539270624626,1,0.34968648702674526,2,-1.0871931746950365,-2.3219789001406683,-15.823564191780546,0.60909228133609550,639.50569081380070,3.37760872346780788E-002,101.26481472585819,185.14437807503327,277.38001607931068
201410020000,410.59037511668186,13.212868166193555,0.33645910892046094,0,-29.272329579520207,0,45.270134201948949,1,7.2479411893148571,0,1.0158247605660846,1,-1.0572560662992732,-1.1815482484832991,-0.45355576759153815,0.54074411744607143,452.58910032266101,4.77254091726930091E-002,95.264531626335540,174.17394687696407,260.94431107030317
